Home   Weather   Jackson   Past weeks

Flag for USA Past Weather in Jackson, Wyoming, USA — Yesterday and Last 2 Weeks

Now
18 °F

Mostly cloudy.


Feels Like: 9 °F
Forecast: 18 / 25 °F
Wind: 6 mph from East

Location: Jackson Hole

Current Time: Jan 23, 2017 at 3:37:38 am

Latest Report: Jan 23, 2017 at 2:55 am


Visibility: 10 mi

Pressure: 29.64 "Hg (23.20 "Hg at 1901m altitude)

Humidity: 93%

Dew Point: 16 °F

Location of JacksonLocation

Past Weather in Jackson — Graph

°F

Jackson Temperature Yesterday

Maximum temperature yesterday: 28 °F (at 12:55 pm)
Minimum temperature yesterday: 21 °F (at 12:15 am)
Average temperature yesterday: 24 °F

High & Low Weather Summary for the Past Weeks

 TemperatureHumidityPressure
High36 °F (Jan 9, 4:35 am)100% (Jan 8, 2:15 am)30.48 "Hg (Jan 8, 2:15 am)
Low-18 °F (Jan 13, 6:55 am)59% (Jan 11, 9:15 pm)29.33 "Hg (Jan 21, 5:15 am)
Average12 °F89%29.89 "Hg
* Reported Jan 8 2:15 am — Jan 23 2:15 am, Jackson, Weather by CustomWeather, © 2017

Note: Actual official high and low records may vary slightly from our data, if they occured in-between our weather recording intervals... More about our weather records

Advertising

Jackson Weather History for the Previous 24 Hours

Scroll right to see more
 ConditionsComfort  
Time TempWeatherWind HumidityBarometerVisibility
2:15 am
Mon, Jan 23
19 °FMostly cloudy.3 mph100%29.65 "Hg9 mi
1:55 am19 °FOvercast.No wind100%29.66 "Hg5 mi
1:15 am21 °FPartly cloudy.6 mph100%29.67 "Hg5 mi
12:55 am21 °FOvercast.7 mph93%29.67 "Hg3 mi
12:15 am21 °FOvercast.5 mph100%29.68 "Hg2 mi
11:55 pm
Sun, Jan 22
21 °FOvercast.6 mph93%29.69 "Hg1 mi
11:15 pm21 °FOvercast.3 mph100%29.69 "Hg2 mi
10:55 pm21 °FOvercast.6 mph93%29.70 "Hg2 mi
10:15 pm21 °FOvercast.9 mph93%29.72 "Hg2 mi
9:55 pm21 °FMostly cloudy.14 mph93%29.72 "Hg2 mi
9:35 pm21 °FOvercast.14 mph100%29.72 "Hg3 mi
8:55 pm21 °FOvercast.12 mph100%29.71 "Hg6 mi
7:56 pm21 °FLight snow. Passing clouds.17 mph100%29.73 "Hg2 mi
6:53 pm23 °FLight snow. Overcast.15 mph93%29.76 "Hg1 mi
5:52 pm23 °FLight snow. Overcast.15 mph93%29.75 "Hg1 mi
4:51 pm27 °FLight mixture of precip. Overcast.8 mph74%29.76 "Hg10 mi
3:50 pm28 °FPartly sunny.6 mph69%29.77 "Hg10 mi
2:53 pm28 °FOvercast.12 mph64%29.78 "Hg10 mi
1:50 pm27 °FPartly sunny.9 mph69%29.77 "Hg10 mi
12:55 pm28 °FPartly sunny.9 mph69%29.82 "Hg10 mi
11:52 am27 °FPartly sunny.No wind74%29.87 "Hg10 mi
10:51 am25 °FPassing clouds.No wind86%29.90 "Hg10 mi
9:51 am25 °FLight mixture of precip. Mostly cloudy.No wind86%29.91 "Hg10 mi
8:51 am23 °FLight mixture of precip. More clouds than sun.6 mph93%29.91 "Hg10 mi
7:55 am23 °FLight mixture of precip. More clouds than sun.No wind93%29.89 "Hg10 mi
6:55 am23 °FLight mixture of precip. Overcast.12 mph93%29.89 "Hg8 mi
6:15 am23 °FPartly cloudy.6 mph100%29.88 "Hg4 mi
5:55 am21 °FPartly cloudy.5 mph100%29.88 "Hg5 mi
5:15 am21 °FPartly cloudy.5 mph100%29.88 "Hg10 mi
4:55 am25 °FOvercast.5 mph86%29.88 "Hg9 mi
4:15 am25 °FMostly cloudy.9 mph86%29.88 "Hg10 mi
3:55 am25 °FMostly cloudy.14 mph86%29.87 "Hg10 mi
3:35 am21 °FMostly cloudy.13 mph100%29.87 "Hg10 mi
Weather by CustomWeather, © 2017

See weather overviewHow to use our weather pages